�N����,����,����,����,����,�C��,���x,�~����,�S�V����,�ő�u�ԕ���,,,,,
,,,,,,,,,����,����,����,�N��,,
yyyy/mm/dd,hh:mm:ss,(16),16����,m/s,��,%,mm,KW/�u,(16),16����,m/s,Time,,
2021/9/1,1:00:00,14,�k��,3.3,14.4,88.3,0,0,13,���k��,4.6,59,,
2021/9/1,2:00:00,14,�k��,3.7,16.1,77,0,0,14,�k��,6.8,56,,
2021/9/1,3:00:00,13,���k��,2.6,14.4,82.5,0,0,14,�k��,5.7,33,,
2021/9/1,4:00:00,13,���k��,3.1,14,84.3,0,0,14,�k��,5.7,37,,
2021/9/1,5:00:00,13,���k��,2.7,10.9,94.1,0,0,13,���k��,4.9,17,,
2021/9/1,6:00:00,14,�k��,3.1,14.9,81.7,0,0.09,13,���k��,5.1,48,,
2021/9/1,7:00:00,12,��,2.1,18,76.8,0,0.32,14,�k��,5,2,,
2021/9/1,8:00:00,7,��쓌,1.3,20.3,72.6,0,0.49,8,��,3.3,59,,
2021/9/1,9:00:00,8,��,2.4,21.6,63.1,0,0.67,7,��쓌,4.4,41,,
2021/9/1,10:00:00,9,��쐼,3.3,22.8,55.4,0,0.82,8,��,5.5,48,,
2021/9/1,11:00:00,8,��,3.9,23.3,48,0,0.9,8,��,5.8,52,,
2021/9/1,12:00:00,8,��,4,23.5,49,0,0.93,8,��,7.6,57,,
2021/9/1,13:00:00,8,��,4.2,23.5,52.4,0,0.91,8,��,7.7,8,,
2021/9/1,14:00:00,,,,,,,,,,,,,
2021/9/1,15:00:00,,,,,,,,,,,,,
2021/9/1,16:00:00,,,,,,,,,,,,,
2021/9/1,17:00:00,,,,,,,,,,,,,
2021/9/1,18:00:00,,,,,,,,,,,,,
2021/9/1,19:00:00,,,,,,,,,,,,,
2021/9/1,20:00:00,,,,,,,,,,,,,
2021/9/1,21:00:00,,,,,,,,,,,,,
2021/9/1,22:00:00,,,,,,,,,,,,,
2021/9/1,23:00:00,,,,,,,,,,,,,
2021/9/1,0:00:00,14,�k��,1.7,13.6,96.3,0,0,15,�k�k��,3,55,,
2021/9/2,1:00:00,12,��,1.8,12.2,97.8,0,0,14,�k��,2.8,24,,
2021/9/2,2:00:00,14,�k��,2.5,13.6,96.6,0,0,14,�k��,3.8,55,,
2021/9/2,3:00:00,13,���k��,3.4,13.6,95,0,0,14,�k��,4.9,52,,
2021/9/2,4:00:00,14,�k��,2,12.9,96.1,0,0,13,���k��,5.2,32,,
2021/9/2,5:00:00,14,�k��,1.7,12.5,96.2,0,0,14,�k��,4.9,25,,
2021/9/2,6:00:00,14,�k��,1.2,14.3,92.1,0,0.1,14,�k��,3.1,31,,
2021/9/2,7:00:00,14,�k��,2.5,16.6,85.4,0,0.3,14,�k��,4.3,48,,
2021/9/2,8:00:00,14,�k��,2,19,81,0,0.42,14,�k��,4.7,11,,
2021/9/2,9:00:00,9,��쐼,0.5,19.7,75.9,0,0.43,13,���k��,3.4,31,,
2021/9/2,10:00:00,5,���쓌,2.2,21.5,67.1,0,0.7,6,�쓌,4.5,43,,
2021/9/2,11:00:00,5,���쓌,3.1,20.9,66.6,0,0.63,5,���쓌,4.7,23,,
2021/9/2,12:00:00,4,��,4.9,20,74.7,0,0.73,5,���쓌,7.2,49,,
2021/9/2,13:00:00,5,���쓌,4.1,20.8,71.1,0,0.77,5,���쓌,7.1,54,,
2021/9/2,14:00:00,6,�쓌,3.1,20.5,74.1,0,0.74,6,�쓌,6.1,0,,
2021/9/2,15:00:00,6,�쓌,2.2,19,77.7,0,0.42,6,�쓌,5,8,,
2021/9/2,16:00:00,6,�쓌,1.2,18.4,79.7,0,0.21,7,��쓌,3.8,10,,
2021/9/2,17:00:00,6,�쓌,1.6,17.8,83.6,0,0.11,6,�쓌,2.6,51,,
2021/9/2,18:00:00,5,���쓌,1.1,15.7,92.9,0,0.03,6,�쓌,2.5,5,,
2021/9/2,19:00:00,14,�k��,0.3,13.3,99.1,0,0,6,�쓌,1.6,0,,
2021/9/2,20:00:00,14,�k��,0.6,11.4,99.6,0,0,14,�k��,1,53,,
2021/9/2,21:00:00,13,���k��,1.2,12.5,100,0,0,13,���k��,2,23,,
2021/9/2,22:00:00,12,��,1.5,13.5,100,0,0,13,���k��,2,28,,
2021/9/2,23:00:00,14,�k��,1.6,13.7,100,0,0,14,�k��,3.3,50,,
2021/9/2,0:00:00,14,�k��,1,13.5,99.6,0,0,15,�k�k��,2.7,16,,
2021/9/3,1:00:00,14,�k��,1.4,13.3,100,0,0,13,���k��,2.6,49,,
2021/9/3,2:00:00,14,�k��,0.4,12,100,0,0,13,���k��,1.6,14,,
2021/9/3,3:00:00,13,���k��,1.3,11.9,100,0,0,13,���k��,2.2,39,,
2021/9/3,4:00:00,14,�k��,1.6,13.3,100,0,0,14,�k��,2.5,42,,
2021/9/3,5:00:00,13,���k��,2.1,12,100,0,0,14,�k��,2.5,56,,
2021/9/3,6:00:00,14,�k��,1.4,13.8,100,0,0.05,14,�k��,2.4,51,,
2021/9/3,7:00:00,14,�k��,1.2,15.4,100,0,0.19,14,�k��,2.1,54,,
2021/9/3,8:00:00,4,��,0.3,17.8,90.8,0,0.29,14,�k��,2.1,5,,
2021/9/3,9:00:00,13,���k��,0.6,18.6,82.7,0,0.33,5,���쓌,1.8,11,,
2021/9/3,10:00:00,6,�쓌,3.5,19.9,76.1,0,0.74,5,���쓌,5.9,53,,
2021/9/3,11:00:00,6,�쓌,2.7,20.8,75.3,0,0.89,6,�쓌,5.8,9,,
2021/9/3,12:00:00,6,�쓌,3.3,20.3,72.9,0,0.91,5,���쓌,6.2,35,,
2021/9/3,13:00:00,6,�쓌,3.6,20.4,71.6,0,0.86,6,�쓌,6.1,58,,
2021/9/3,14:00:00,7,��쓌,3.3,20.7,77,0,0.75,6,�쓌,6.4,29,,
2021/9/3,15:00:00,7,��쓌,3.7,19.9,79.2,0,0.6,7,��쓌,6.5,7,,
2021/9/3,16:00:00,8,��,2.5,18.8,83.6,0,0.37,8,��,6.4,3,,
2021/9/3,17:00:00,7,��쓌,1.9,18.1,87.9,0,0.12,7,��쓌,4.5,5,,
2021/9/3,18:00:00,6,�쓌,2.1,17.6,90.3,0,0.03,6,�쓌,4.3,25,,
2021/9/3,19:00:00,6,�쓌,1.2,17.1,92.5,0,0,6,�쓌,2.7,8,,
2021/9/3,20:00:00,6,�쓌,1.9,17.7,91.2,0,0,6,�쓌,3.5,42,,
2021/9/3,21:00:00,7,��쓌,1.2,17.4,94,0,0,7,��쓌,3.2,9,,
2021/9/3,22:00:00,6,�쓌,1.4,17.6,94.2,0,0,6,�쓌,2.8,10,,
2021/9/3,23:00:00,6,�쓌,1.9,17.7,93.7,0,0,6,�쓌,2.8,49,,
2021/9/3,0:00:00,6,�쓌,0.5,17.4,91.1,0,0,5,���쓌,3,8,,
2021/9/4,1:00:00,6,�쓌,0.5,15.2,95.5,0,0,7,��쓌,1.8,12,,
2021/9/4,2:00:00,2,�k��,1.1,16.1,99.1,0,0,1,�k�k��,1.7,59,,
2021/9/4,3:00:00,2,�k��,0.7,16.3,97.4,0,0,2,�k��,1.7,2,,
2021/9/4,4:00:00,4,��,0.5,16.9,97.9,0,0,5,���쓌,1.9,57,,
2021/9/4,5:00:00,6,�쓌,0.6,16.9,94.5,0,0,6,�쓌,2.5,15,,
2021/9/4,6:00:00,16,�É�,0,16.3,98.2,0,0.06,13,���k��,1.3,38,,
2021/9/4,7:00:00,2,�k��,0.4,18.3,92.1,0,0.13,2,�k��,1.5,33,,
2021/9/4,8:00:00,6,�쓌,1.7,18.2,88.7,0,0.13,5,���쓌,3.2,25,,
2021/9/4,9:00:00,5,���쓌,2.8,18.4,82.2,0,0.25,5,���쓌,4.5,58,,
2021/9/4,10:00:00,6,�쓌,2.4,19.3,80.3,0,0.4,5,���쓌,4.9,26,,
2021/9/4,11:00:00,6,�쓌,2.7,20.5,76.4,0,0.54,5,���쓌,5.1,18,,
2021/9/4,12:00:00,5,���쓌,2.3,18.7,78.1,0,0.41,5,���쓌,5.1,11,,
2021/9/4,13:00:00,4,��,2,19.4,74.9,0,0.42,5,���쓌,5.6,44,,
2021/9/4,14:00:00,4,��,2.8,19.8,75.7,0,0.53,4,��,5.1,54,,
2021/9/4,15:00:00,5,���쓌,2.4,19.5,75.1,0,0.55,5,���쓌,5.4,29,,
2021/9/4,16:00:00,5,���쓌,2.4,18.9,76.6,0,0.4,4,��,4.9,44,,
2021/9/4,17:00:00,5,���쓌,1.7,17.5,82.5,0,0.15,5,���쓌,3.8,16,,
2021/9/4,18:00:00,5,���쓌,0.9,15.9,89.2,0,0.03,5,���쓌,2.2,6,,
2021/9/4,19:00:00,16,�É�,0,12.7,94,0,0,6,�쓌,2,31,,
2021/9/4,20:00:00,13,���k��,1.2,11.7,99.2,0,0,13,���k��,1.6,54,,
2021/9/4,21:00:00,13,���k��,0.7,12.2,100,0,0,12,��,2.2,23,,
2021/9/4,22:00:00,13,���k��,0.7,11.7,100,0,0,13,���k��,2.3,30,,
2021/9/4,23:00:00,13,���k��,1.4,12.2,100,0,0,14,�k��,3,36,,
2021/9/4,0:00:00,13,���k��,0.9,13.2,100,0,0,15,�k�k��,2.5,6,,
2021/9/5,1:00:00,13,���k��,1.4,13.3,99.7,0,0,13,���k��,2.1,59,,
2021/9/5,2:00:00,13,���k��,0.9,13.9,98.7,0,0,14,�k��,3.4,16,,
2021/9/5,3:00:00,13,���k��,1,13.7,98.8,0,0,14,�k��,1.8,30,,
2021/9/5,4:00:00,13,���k��,1,13.6,98.6,0,0,13,���k��,2.3,17,,
2021/9/5,5:00:00,13,���k��,0.9,13.8,99.7,0,0,13,���k��,1.9,6,,
2021/9/5,6:00:00,14.8,�k��,99.4,0,0.03,,,,,,,,
2021/9/5,7:00:00,13,���k��,0.9,15.6,97.1,0,0.09,12,��,1.5,49,,
2021/9/5,8:00:00,2,�k��,1.6,17.9,89.3,0,0.29,2,�k��,2.7,44,,
2021/9/5,9:00:00,14,�k��,1.5,18.9,76.6,0,0.58,16,�k,4.1,48,,
2021/9/5,10:00:00,4,��,4.4,20.3,76.1,0,0.64,5,���쓌,6.6,44,,
2021/9/5,11:00:00,4,��,4.7,18.7,77.8,0,0.61,5,���쓌,7,39,,
2021/9/5,12:00:00,5,���쓌,4,18.4,77.9,0,0.61,5,���쓌,6.7,1,,
2021/9/5,13:00:00,5,���쓌,5.1,17.6,77,0,0.63,5,���쓌,6.8,50,,
2021/9/5,14:00:00,6,�쓌,3,17.7,79.1,0,0.39,6,�쓌,7.1,0,,
2021/9/5,15:00:00,6,�쓌,2.7,17.7,75.8,0,0.41,6,�쓌,5.5,31,,
2021/9/5,16:00:00,7,��쓌,1.5,17.1,82.4,0,0.34,5,���쓌,4.3,27,,
2021/9/5,17:00:00,8,��,1,16.6,81.3,0,0.21,7,��쓌,2.8,18,,
2021/9/5,18:00:00,16,�É�,0,15.6,88.9,0,0.04,9,��쐼,1.4,18,,
2021/9/5,19:00:00,16,�É�,0,15,96.1,0,0,8,��,1,9,,
2021/9/5,20:00:00,16,�É�,0.2,15,97.2,0,0,12,��,0.8,49,,
2021/9/5,21:00:00,16,�É�,0.2,15,96.7,0,0,15,�k�k��,0.8,46,,
2021/9/5,22:00:00,16,�É�,0.2,14.8,97.4,0,0,16,�k,1.3,59,,
2021/9/5,23:00:00,2,�k��,2.3,14.8,93.4,0,0,2,�k��,3.5,57,,
2021/9/5,0:00:00,2,�k��,1.4,14.6,94.2,0,0,2,�k��,3.5,2,,
2021/9/6,1:00:00,13,���k��,1,14.5,95.9,0,0,2,�k��,2.1,2,,
2021/9/6,2:00:00,14,�k��,0.7,14.4,96.4,0,0,14,�k��,2.3,32,,
2021/9/6,3:00:00,14,�k��,0.9,14.3,97.1,0,0,14,�k��,2.3,49,,
2021/9/6,4:00:00,14.6,�k��,97.1,0,0,,,,,,,,
2021/9/6,5:00:00,14,�k��,0.6,14.1,98.7,0,0,14,�k��,1.2,57,,
2021/9/6,6:00:00,14,�k��,0.5,14.6,96.4,0,0.03,14,�k��,1.2,41,,
2021/9/6,7:00:00,2,�k��,0.9,15.7,88,0,0.11,1,�k�k��,1.8,43,,
2021/9/6,8:00:00,1,�k�k��,1.2,17.1,80.1,0,0.2,1,�k�k��,2.1,57,,
2021/9/6,9:00:00,1,�k�k��,1.1,17.8,78.8,0,0.34,2,�k��,2.5,46,,
2021/9/6,10:00:00,6,�쓌,2.5,17.5,80.1,0,0.33,5,���쓌,3.9,58,,
2021/9/6,11:00:00,5,���쓌,3.4,20.2,75.8,0,0.5,5,���쓌,5.6,47,,
2021/9/6,12:00:00,5,���쓌,3.7,19.4,70,0,0.8,4,��,6.7,28,,
2021/9/6,13:00:00,5,���쓌,3.4,19.2,68,0,0.85,5,���쓌,5.8,45,,
2021/9/6,14:00:00,5,���쓌,3.3,19.3,66,0,0.77,5,���쓌,5.3,28,,
2021/9/6,15:00:00,7,��쓌,2.8,18.5,70.2,0,0.62,6,�쓌,5.3,26,,
2021/9/6,16:00:00,8,��,2.5,17.9,70.4,0,0.45,6,�쓌,4.7,7,,
2021/9/6,17:00:00,8,��,1.3,16.8,73.8,0,0.24,6,�쓌,4.4,7,,
2021/9/6,18:00:00,10,�쐼,0.5,12.7,93,0,0.04,9,��쐼,2.1,32,,
2021/9/6,19:00:00,13,���k��,1,9.9,97.7,0,0,13,���k��,1.6,57,,
2021/9/6,20:00:00,13,���k��,1.3,10.4,99.3,0,0,12,��,2.3,50,,
2021/9/6,21:00:00,13,���k��,1.4,10.3,99.4,0,0,13,���k��,2.3,22,,
2021/9/6,22:00:00,13,���k��,1,9.7,99.8,0,0,13,���k��,2.6,40,,
2021/9/6,23:00:00,13,���k��,2.2,9.6,100,0,0,13,���k��,3.2,58,,
2021/9/6,0:00:00,12,��,1.9,11,98.1,0,0,13,���k��,3.5,3,,
2021/9/7,1:00:00,13,���k��,1.7,9.9,99.9,0,0,13,���k��,2.5,0,,
2021/9/7,2:00:00,13,���k��,2.5,10.2,98.5,0,0,15,�k�k��,3.7,24,,
2021/9/7,3:00:00,14,�k��,1.6,11.1,98.7,0,0,13,���k��,3.6,20,,
2021/9/7,4:00:00,13,���k��,1.7,9.7,99.2,0,0,14,�k��,4.1,21,,
2021/9/7,5:00:00,13,���k��,1.3,8.7,99.8,0,0,14,�k��,3.3,18,,
2021/9/7,6:00:00,13,���k��,0.6,11.3,98.8,0,0.08,13,���k��,4.5,21,,
2021/9/7,7:00:00,15,�k�k��,91.5,0,0.28,,,,,,,,
2021/9/7,8:00:00,14,�k��,1.9,18.2,80.6,0,0.48,14,�k��,3,38,,
2021/9/7,9:00:00,2,�k��,2.7,20.6,66.6,0,0.64,3,���k��,5.1,58,,
2021/9/7,10:00:00,5,���쓌,2.8,20.8,56.6,0,0.78,5,���쓌,5.2,42,,
2021/9/7,11:00:00,5,���쓌,3.2,20.9,57.2,0,0.86,4,��,5.2,22,,
2021/9/7,12:00:00,6,�쓌,2.3,20.9,59,0,0.77,5,���쓌,5,0,,
2021/9/7,13:00:00,6,�쓌,2.3,21.3,59.1,0,0.85,4,��,3.8,45,,
2021/9/7,14:00:00,6,�쓌,2.9,20.7,56,0,0.75,5,���쓌,4.5,43,,
2021/9/7,15:00:00,6,�쓌,2.2,20,62.7,0,0.58,6,�쓌,4.7,26,,
2021/9/7,16:00:00,7,��쓌,1.7,19,68.5,0,0.31,7,��쓌,3.2,36,,
2021/9/7,17:00:00,9,��쐼,0.9,17.2,79.6,0,0.14,8,��,3.2,25,,
2021/9/7,18:00:00,16,�É�,0,14.4,91,0,0.03,9,��쐼,2.2,14,,
2021/9/7,19:00:00,11,���쐼,0.7,13.3,98.5,0,0,12,��,2.1,49,,
2021/9/7,20:00:00,8,��,0.6,14.7,95.2,0,0,9,��쐼,1.8,54,,
2021/9/7,21:00:00,10,�쐼,0.4,12.2,95,0,0,6,�쓌,2.3,28,,
2021/9/7,22:00:00,9,��쐼,1,13.4,95.7,0,0,8,��,2.4,46,,
2021/9/7,23:00:00,12,��,1.2,12.9,95.5,0,0,9,��쐼,3.4,15,,
2021/9/7,0:00:00,13,���k��,0.9,11.5,99.3,0,0,13,���k��,2.4,14,,
2021/9/8,1:00:00,12,��,1.3,11.2,99.9,0,0,13,���k��,2.5,37,,
2021/9/8,2:00:00,12,��,1.9,11.1,100,0,0,12,��,2.3,58,,
2021/9/8,3:00:00,11.1,���쐼,100,0,0,,,,,,,,
2021/9/8,4:00:00,12,��,2.8,11.4,100,0,0,12,��,3.5,57,,
2021/9/8,5:00:00,13,���k��,2.1,11.9,100,0,0,13,���k��,3.3,13,,
2021/9/8,6:00:00,12,��,1.5,12.2,100,0,0.02,12,��,2.3,25,,
2021/9/8,7:00:00,13.9,���k��,99.3,0,0.11,,,,,,,,
2021/9/8,8:00:00,1,�k�k��,0.5,17.3,93.7,0,0.24,5,���쓌,2,59,,
2021/9/8,9:00:00,8,��,2.5,18.3,72.9,0,0.49,8,��,5,59,,
2021/9/8,10:00:00,7,��쓌,3.3,18.1,73.1,0,0.49,7,��쓌,7,48,,
2021/9/8,11:00:00,8,��,3.8,18.2,68.7,0,0.41,7,��쓌,6.8,54,,
2021/9/8,12:00:00,7,��쓌,3.4,17.5,76.4,0,0.36,7,��쓌,6.6,13,,
2021/9/8,13:00:00,8,��,3.3,17.7,79.2,0,0.41,8,��,6.9,46,,
2021/9/8,14:00:00,7,��쓌,2.9,17.5,76.4,0,0.25,7,��쓌,6.3,8,,
2021/9/8,15:00:00,7,��쓌,2.4,17.4,78.4,0,0.22,8,��,5.7,43,,
2021/9/8,16:00:00,7,��쓌,2.3,17,79.5,0,0.12,7,��쓌,4.9,40,,
2021/9/8,17:00:00,7,��쓌,2,16.8,80.5,0,0.04,7,��쓌,5,7,,
2021/9/8,18:00:00,7,��쓌,1.3,16.6,81.4,0,0.02,7,��쓌,5,23,,
2021/9/8,19:00:00,7,��쓌,1.4,16.7,82.5,0,0,6,�쓌,3.7,52,,
2021/9/8,20:00:00,13,���k��,0.3,15.8,92.7,0,0,8,��,4.8,3,,
2021/9/8,21:00:00,16,�k,1.1,15.2,97.6,0,0,16,�k,1.7,52,,
2021/9/8,22:00:00,13,���k��,0.9,15,98.7,0,0,14,�k��,2.5,41,,
2021/9/8,23:00:00,13,���k��,0.4,15.1,99.3,0,0,12,��,1.4,14,,
2021/9/8,0:00:00,14,�k��,0.3,15,99.5,0,0,13,���k��,0.9,54,,
2021/9/9,1:00:00,13,���k��,0.4,15.1,99.9,0,0,1,�k�k��,1.6,10,,
2021/9/9,2:00:00,1,�k�k��,1.6,15.6,100,0,0,2,�k��,2.3,55,,
2021/9/9,3:00:00,1,�k�k��,1.6,15.7,100,0.5,0,1,�k�k��,2.6,37,,
2021/9/9,4:00:00,15,�k�k��,1.8,15,100,3,0,14,�k��,3.9,49,,
2021/9/9,5:00:00,14,�k��,1.4,14.9,100,2,0,15,�k�k��,6,22,,
2021/9/9,6:00:00,14,�k��,2.8,14.8,100,1.5,0.01,14,�k��,5.5,44,,
2021/9/9,7:00:00,15,�k�k��,2.1,15.3,100,3,0.04,14,�k��,5.6,28,,
2021/9/9,8:00:00,14,�k��,2.7,15.5,100,4.5,0.06,14,�k��,4.6,57,,
2021/9/9,9:00:00,4,��,2.2,17.4,100,1,0.1,4,��,4.8,59,,
2021/9/9,10:00:00,3,���k��,3.3,17.4,100,3.5,0.14,2,�k��,6,42,,
2021/9/9,11:00:00,2,�k��,3.8,17.2,99.4,2,0.18,3,���k��,7.3,42,,
2021/9/9,12:00:00,2,�k��,3.5,17,99.2,4.5,0.15,2,�k��,7.5,44,,
2021/9/9,13:00:00,16,�k,2.3,18,99.5,3.5,0.16,2,�k��,6.1,19,,
2021/9/9,14:00:00,16,�k,1.7,18.1,98.4,0,0.15,1,�k�k��,4.6,16,,
2021/9/9,15:00:00,16,�k,1.2,18.6,97.4,0,0.16,1,�k�k��,3,3,,
2021/9/9,16:00:00,3,���k��,2.2,18.3,97,0,0.11,3,���k��,3.5,59,,
2021/9/9,17:00:00,2,�k��,2.1,18,98.6,0,0.05,2,�k��,3.4,51,,
2021/9/9,18:00:00,2,�k��,0.6,17.5,99.3,0,0.01,1,�k�k��,2.9,14,,
2021/9/9,19:00:00,16,�É�,0.1,17.3,99.1,0,0,16,�k,1.2,30,,
2021/9/9,20:00:00,12,��,0.7,16.9,99.7,0,0,1,�k�k��,1.3,26,,
2021/9/9,21:00:00,14,�k��,0.4,16.8,100,0,0,14,�k��,2.6,35,,
2021/9/9,22:00:00,15,�k�k��,0.5,14.5,100,0,0,14,�k��,1.1,51,,
2021/9/9,23:00:00,14,�k��,1.7,16,100,0,0,14,�k��,2.4,56,,
2021/9/9,0:00:00,12,��,0.3,16.2,100,0,0,12,��,2.2,36,,
2021/9/10,1:00:00,13,���k��,1,16.3,100,0,0,12,��,2.3,42,,
2021/9/10,2:00:00,9,��쐼,0.5,16.5,100,0,0,14,�k��,1.7,16,,
2021/9/10,3:00:00,13,���k��,1.2,16.7,100,0,0,13,���k��,1.6,59,,
2021/9/10,4:00:00,1,�k�k��,1.1,16.7,100,0,0,11,���쐼,2.7,20,,
2021/9/10,5:00:00,13,���k��,1.1,15.4,99.9,0,0,12,��,2.5,34,,
2021/9/10,6:00:00,15,�k�k��,0.5,16.2,100,0,0.06,11,���쐼,2.4,14,,
2021/9/10,7:00:00,13,���k��,1.4,18.7,94.8,0,0.25,13,���k��,2.3,59,,
2021/9/10,8:00:00,13,���k��,2.4,21,84,0,0.45,13,���k��,4.2,57,,
2021/9/10,9:00:00,15,�k�k��,1.3,21.9,77.5,0,0.56,14,�k��,4.4,24,,
2021/9/10,10:00:00,5,���쓌,2.5,21.4,82.4,0,0.54,3,���k��,4.5,27,,
2021/9/10,11:00:00,5,���쓌,2.6,20.6,86.7,0,0.61,5,���쓌,5,6,,
2021/9/10,12:00:00,5,���쓌,2.5,21.7,79.9,0,0.75,5,���쓌,4.4,58,,
2021/9/10,13:00:00,6,�쓌,3.4,20.3,81.3,0,0.83,5,���쓌,5.6,50,,
2021/9/10,14:00:00,7,��쓌,3,19.5,86.6,0,0.64,7,��쓌,5.8,50,,
2021/9/10,15:00:00,9,��쐼,2.4,19.3,88,0,0.4,8,��,5.2,4,,
2021/9/10,16:00:00,8,��,2.5,19.5,86.1,0,0.4,9,��쐼,4.8,42,,
2021/9/10,17:00:00,9,��쐼,1.3,19,90.4,0,0.14,9,��쐼,3.5,16,,
2021/9/10,18:00:00,6,�쓌,1.1,17.1,96.8,0,0.03,10,�쐼,2.5,2,,
2021/9/10,19:00:00,2,�k��,0.7,15.4,99.7,0,0,7,��쓌,1.5,0,,
2021/9/10,20:00:00,16,�É�,0.2,13.9,100,0,0,11,���쐼,0.7,55,,
2021/9/10,21:00:00,16,�É�,0,15.5,100,0,0,2,�k��,2.1,28,,
2021/9/10,22:00:00,6,�쓌,1.1,17.1,100,0,0,6,�쓌,2.5,21,,
2021/9/10,23:00:00,7,��쓌,1.4,16.8,99.2,0,0,6,�쓌,3.2,42,,
2021/9/10,0:00:00,5,���쓌,1.6,16.9,99,0,0,5,���쓌,2.4,59,,
2021/9/11,1:00:00,6,�쓌,1.1,16.8,99.1,0,0,5,���쓌,2.8,6,,
2021/9/11,2:00:00,9,��쐼,0.7,16.7,98.9,0,0,6,�쓌,2.5,1,,
2021/9/11,3:00:00,13,���k��,0.6,16.8,98.7,0,0,14,�k��,1,44,,
2021/9/11,4:00:00,16,�É�,0,16.7,98.9,0,0,10,�쐼,1.1,36,,
2021/9/11,5:00:00,7,��쓌,0.3,16.6,99.2,0,0,8,��,1.1,39,,
2021/9/11,6:00:00,16,�É�,0.1,16.1,100,0,0.03,15,�k�k��,1.3,40,,
2021/9/11,7:00:00,14,�k��,0.5,17.5,97.2,0,0.09,13,���k��,1.5,25,,
2021/9/11,8:00:00,5,���쓌,1.7,17.7,93.9,0,0.15,5,���쓌,2.1,59,,
2021/9/11,9:00:00,7,��쓌,1.1,17.6,95.3,0,0.13,5,���쓌,3,15,,
2021/9/11,10:00:00,6,�쓌,2.4,17.6,93.7,0,0.2,6,�쓌,3.7,49,,
2021/9/11,11:00:00,6,�쓌,2.9,18.3,92.1,0,0.32,7,��쓌,4.4,58,,
2021/9/11,12:00:00,6,�쓌,2.7,18.1,92.5,0,0.27,6,�쓌,5.7,58,,
2021/9/11,13:00:00,7,��쓌,2.7,17.2,95.7,0,0.22,6,�쓌,5.8,3,,
2021/9/11,14:00:00,7,��쓌,2.6,17,98.5,0,0.16,7,��쓌,6,5,,
2021/9/11,15:00:00,6,�쓌,2,17,97.6,0,0.1,8,��,5,5,,
2021/9/11,16:00:00,5,���쓌,2.5,16.7,98.4,0,0.04,6,�쓌,4.5,13,,
2021/9/11,17:00:00,4,��,2.4,16.6,98.5,0,0.02,4,��,3.8,25,,
2021/9/11,18:00:00,6,�쓌,1.7,16.4,97.8,0,0.01,5,���쓌,4.1,17,,
2021/9/11,19:00:00,5,���쓌,1.7,16.5,98.7,0,0,5,���쓌,3.3,2,,
2021/9/11,20:00:00,6,�쓌,1.4,16.6,98.7,0,0,5,���쓌,3.6,5,,
2021/9/11,21:00:00,5,���쓌,2,16.4,97.4,0,0,6,�쓌,3.9,59,,
2021/9/11,22:00:00,6,�쓌,2.5,16.4,98.6,0,0,6,�쓌,4.6,45,,
2021/9/11,23:00:00,6,�쓌,3,16.5,98.3,0,0,6,�쓌,5.7,50,,
2021/9/11,0:00:00,7,��쓌,2.4,16.8,97.2,0,0,6,�쓌,6.1,4,,
2021/9/12,1:00:00,7,��쓌,2.7,16.8,96.9,0,0,7,��쓌,5.9,40,,
2021/9/12,2:00:00,7,��쓌,2,16.8,97,0,0,7,��쓌,6,18,,
2021/9/12,3:00:00,8,��,1.1,16.8,96.7,0,0,8,��,4.1,36,,
2021/9/12,4:00:00,8,��,2.3,16.9,96.7,0,0,8,��,5.4,57,,
2021/9/12,5:00:00,8,��,2.6,16.9,96.5,0,0,8,��,5.1,59,,
2021/9/12,6:00:00,9,��쐼,3,17.1,97.4,0,0.02,8,��,7.3,54,,
2021/9/12,7:00:00,8,��,3,17.3,96.6,0,0.05,8,��,7.4,8,,
2021/9/12,8:00:00,8,��,3.2,17.9,95.9,0,0.09,8,��,6.6,43,,
2021/9/12,9:00:00,8,��,2.5,18.5,95.8,0,0.12,8,��,6.5,13,,
2021/9/12,10:00:00,8,��,1.6,20.1,91.3,0,0.26,9,��쐼,7.4,8,,
2021/9/12,11:00:00,7,��쓌,1.7,21.1,89.2,0,0.37,8,��,4.1,22,,
2021/9/12,12:00:00,8,��,2.3,21.3,89.3,0,0.28,7,��쓌,8.1,21,,
2021/9/12,13:00:00,9,��쐼,2.2,20.9,83.9,0,0.21,8,��,4.9,45,,
2021/9/12,14:00:00,16,�É�,0.2,22.7,84,0,0.25,8,��,3.8,1,,
2021/9/12,15:00:00,10,�쐼,1.7,20.6,83.9,0,0.2,8,��,4.5,48,,
2021/9/12,16:00:00,3,���k��,1,19.6,90.9,0,0.09,3,���k��,2.7,35,,
2021/9/12,17:00:00,14,�k��,2.1,18.6,93.2,0.5,0.03,6,�쓌,5.4,20,,
2021/9/12,18:00:00,5,���쓌,0.4,17.2,95.9,1,0.01,12,��,10.5,8,,
2021/9/12,19:00:00,6,�쓌,1.7,17.9,98.5,0,0,8,��,3,24,,
2021/9/12,20:00:00,10,�쐼,1.8,18.1,90.9,0,0,10,�쐼,5.4,55,,
2021/9/12,21:00:00,8,��,3.7,17.7,95.7,0,0,9,��쐼,6.7,44,,
2021/9/12,22:00:00,9,��쐼,1.8,17.4,95.1,0,0,8,��,6.3,24,,
2021/9/12,23:00:00,10,�쐼,2.6,15.7,89.1,0,0,10,�쐼,4.6,53,,
2021/9/12,0:00:00,11,���쐼,2,14.8,88,0,0,10,�쐼,5.5,38,,
2021/9/13,1:00:00,2,�k��,0.5,12.1,94.8,0,0,12,��,4.4,2,,
2021/9/13,2:00:00,12,��,1.1,12.9,98.6,0,0,10,�쐼,3.4,10,,
2021/9/13,3:00:00,11,���쐼,0.7,12.2,96.5,0,0,9,��쐼,4.8,22,,
2021/9/13,4:00:00,11,���쐼,1.5,13.3,95.5,0,0,14,�k��,2.8,59,,
2021/9/13,5:00:00,10,�쐼,0.3,11.7,96.5,0,0,13,���k��,4.2,10,,
2021/9/13,6:00:00,13.6,���k��,97.9,0,0.04,,,,,,,,
2021/9/13,7:00:00,1,�k�k��,3.6,15.7,90.5,0,0.1,2,�k��,6,51,,
2021/9/13,8:00:00,14,�k��,4,16.5,97.7,0.5,0.21,14,�k��,7.4,52,,
2021/9/13,9:00:00,14,�k��,3.4,19.4,72.3,0,0.62,15,�k�k��,7.5,59,,
2021/9/13,10:00:00,14,�k��,5.6,21.3,59.2,0,0.76,14,�k��,11.3,30,,
2021/9/13,11:00:00,14,�k��,6,22.3,54.9,0,0.82,14,�k��,13.3,40,,
2021/9/13,12:00:00,15,�k�k��,7.1,22.7,50.5,0,0.88,14,�k��,15.2,5,,
2021/9/13,13:00:00,15,�k�k��,6.5,22.6,45.8,0,0.84,15,�k�k��,13.8,52,,
2021/9/13,14:00:00,16,�k,6.6,22.2,51.5,0,0.74,16,�k,13.9,27,,
2021/9/13,15:00:00,16,�k,7.4,20.5,52.5,0,0.52,1,�k�k��,14.1,54,,
2021/9/13,16:00:00,15,�k�k��,5.9,19.5,49.8,0,0.16,16,�k,12.8,56,,
2021/9/13,17:00:00,1,�k�k��,3.8,17.3,68.2,0,0.12,16,�k,15.2,6,,
2021/9/13,18:00:00,1,�k�k��,4.3,14.7,72.9,0,0.02,1,�k�k��,7.6,52,,
2021/9/13,19:00:00,2,�k��,1.6,13.1,72.8,0,0,1,�k�k��,6.7,0,,
2021/9/13,20:00:00,11,���쐼,1.2,10.6,88.7,0,0,9,��쐼,4.3,13,,
2021/9/13,21:00:00,13,���k��,1.7,8.7,94.4,0,0,15,�k�k��,3.2,52,,
2021/9/13,22:00:00,12,��,1.8,7.5,97.7,0,0,12,��,6.8,30,,
2021/9/13,23:00:00,13,���k��,2.7,7.3,98.1,0,0,13,���k��,3.1,59,,
2021/9/13,0:00:00,14,�k��,2.5,7.8,97.2,0,0,14,�k��,3.3,53,,
2021/9/14,1:00:00,13,���k��,2.4,7.3,98.2,0,0,13,���k��,3.4,24,,
2021/9/14,2:00:00,13,���k��,2.1,6.6,98.2,0,0,14,�k��,3.1,39,,
2021/9/14,3:00:00,13,���k��,2.4,6,99.1,0,0,14,�k��,3,52,,
2021/9/14,4:00:00,13,���k��,2.3,5.6,99.7,0,0,14,�k��,3.6,51,,
2021/9/14,5:00:00,13,���k��,1.9,3.5,100,0,0,12,��,2.5,59,,
2021/9/14,6:00:00,12,��,1.9,6.9,100,0,0.08,13,���k��,3,45,,
2021/9/14,7:00:00,13,���k��,1.7,11,90,0,0.27,13,���k��,3.2,9,,
2021/9/14,8:00:00,14,�k��,0.4,15,76.8,0,0.46,14,�k��,2,32,,
2021/9/14,9:00:00,6,�쓌,0.8,16.7,69.7,0,0.63,9,��쐼,2.5,45,,
2021/9/14,10:00:00,6,�쓌,2.5,17.4,55.5,0,0.79,7,��쓌,4.6,41,,
2021/9/14,11:00:00,6,�쓌,2.5,19.3,52.7,0,0.83,6,�쓌,4.4,55,,
2021/9/14,12:00:00,6,�쓌,2.9,18.2,51.4,0,0.86,5,���쓌,4.8,9,,
2021/9/14,13:00:00,6,�쓌,2.5,17.8,54.9,0,0.77,7,��쓌,4.5,19,,
2021/9/14,14:00:00,6,�쓌,2.4,17,59.1,0,0.68,6,�쓌,5.6,56,,
2021/9/14,15:00:00,6,�쓌,2.6,16.7,58.3,0,0.64,6,�쓌,5,21,,
2021/9/14,16:00:00,7,��쓌,2,16.2,58.9,0,0.42,7,��쓌,4.7,7,,
2021/9/14,17:00:00,9,��쐼,0.6,14.2,72.6,0,0.2,6,�쓌,3.2,15,,
2021/9/14,18:00:00,10,�쐼,1.5,12.7,85.3,0,0.01,9,��쐼,2.6,52,,
2021/9/14,19:00:00,13,���k��,1.6,9.6,96.7,0,0,13,���k��,2,53,,
2021/9/14,20:00:00,13,���k��,1.1,8.6,98.8,0,0,13,���k��,2,40,,
2021/9/14,21:00:00,12,��,1.1,7.7,99.2,0,0,13,���k��,1.8,59,,
2021/9/14,22:00:00,14,�k��,1.1,10.2,99.7,0,0,14,�k��,2.5,47,,
2021/9/14,23:00:00,14,�k��,1.5,11.1,96.6,0,0,14,�k��,2.2,51,,
2021/9/14,0:00:00,14,�k��,2.3,11.5,93.8,0,0,14,�k��,3.5,57,,
2021/9/15,1:00:00,15,�k�k��,1.4,11.8,91.6,0,0,15,�k�k��,3.7,35,,
2021/9/15,2:00:00,14,�k��,2.6,11.6,92.7,0,0,14,�k��,4,8,,
2021/9/15,3:00:00,14,�k��,2.2,11.5,91.9,0,0,13,���k��,3.6,54,,
2021/9/15,4:00:00,14,�k��,1.6,11.3,90.4,0,0,14,�k��,3.8,32,,
2021/9/15,5:00:00,14,�k��,1.5,11,90,0,0,14,�k��,3.8,33,,
2021/9/15,6:00:00,14,�k��,1.1,11.2,88.7,0,0.02,13,���k��,3.1,4,,
2021/9/15,7:00:00,14,�k��,2.1,12,84.1,0,0.11,13,���k��,4.1,43,,
2021/9/15,8:00:00,14,�k��,1.3,15.5,76,0,0.32,14,�k��,4.3,6,,
2021/9/15,9:00:00,14,�k��,1,17.4,80.8,0,0.52,14,�k��,2.8,14,,
2021/9/15,10:00:00,5,���쓌,3.3,16.5,70,0,0.76,5,���쓌,5.4,43,,
2021/9/15,11:00:00,4,��,3.8,16.7,70,0,0.85,3,���k��,5.6,54,,
2021/9/15,12:00:00,4,��,3.7,17.4,68.2,0,0.88,4,��,6.8,9,,
2021/9/15,13:00:00,5,���쓌,3,16.1,71.1,0,0.69,4,��,6.2,33,,
2021/9/15,14:00:00,6,�쓌,2.7,15.6,74.5,0,0.38,5,���쓌,5.2,4,,
2021/9/15,15:00:00,8,��,2.6,16.4,75.9,0,0.43,9,��쐼,4.6,52,,
2021/9/15,16:00:00,9,��쐼,2.3,15.3,75.7,0,0.39,7,��쓌,4.2,16,,
2021/9/15,17:00:00,8,��,1.2,14.2,83.2,0,0.19,8,��,4.1,3,,
2021/9/15,18:00:00,16,�É�,0.2,10.8,97.7,0,0.02,8,��,1.6,2,,
2021/9/15,19:00:00,13,���k��,0.6,9.6,99.6,0,0,12,��,1.2,44,,
2021/9/15,20:00:00,12,��,1.6,7.8,99.9,0,0,13,���k��,2.1,30,,
2021/9/15,21:00:00,12,��,2.1,8,100,0,0,12,��,2.5,57,,
2021/9/15,22:00:00,13,���k��,2.1,7.9,100,0,0,13,���k��,2.5,54,,
2021/9/15,23:00:00,13,���k��,2,9.2,100,0,0,14,�k��,3.1,47,,
2021/9/15,0:00:00,13,���k��,1.1,8.9,100,0,0,14,�k��,3.2,7,,
2021/9/16,1:00:00,14,�k��,1.8,10,99.6,0,0,14,�k��,4.1,40,,
2021/9/16,2:00:00,14,�k��,1.6,10.2,98.6,0,0,15,�k�k��,3.4,2,,
2021/9/16,3:00:00,13,���k��,0.8,8.4,98,0,0,14,�k��,4,24,,
2021/9/16,4:00:00,13,���k��,1,7.8,99.6,0,0,14,�k��,2.6,25,,
2021/9/16,5:00:00,12,��,0.9,7.2,100,0,0,13,���k��,2.7,17,,
2021/9/16,6:00:00,13,���k��,2.1,9.1,100,0,0.02,13,���k��,3.2,57,,
2021/9/16,7:00:00,14,�k��,2,11.1,96.7,0,0.08,14,�k��,3.2,51,,
2021/9/16,8:00:00,13,���k��,1.4,13.2,94.1,0,0.21,13,���k��,3.5,30,,
2021/9/16,9:00:00,13,���k��,1.1,16.2,75.2,0,0.59,12,��,3.2,39,,
2021/9/16,10:00:00,6,�쓌,2.4,17.4,66.3,0,0.66,5,���쓌,4,52,,
2021/9/16,11:00:00,6,�쓌,3.6,17.1,70.7,0,0.87,6,�쓌,5.7,39,,
2021/9/16,12:00:00,6,�쓌,3.6,17.4,75,0,0.86,6,�쓌,6,43,,
2021/9/16,13:00:00,7,��쓌,3.7,16.7,70.5,0,0.81,6,�쓌,6.8,44,,
2021/9/16,14:00:00,7,��쓌,3.5,16.6,74.5,0,0.68,8,��,7.3,42,,
2021/9/16,15:00:00,8,��,3.6,15.9,80.5,0,0.43,8,��,6,54,,
2021/9/16,16:00:00,8,��,2.8,15.5,73.5,0,0.32,7,��쓌,6,7,,
2021/9/16,17:00:00,8,��,2,14,81.3,0,0.11,9,��쐼,5.3,5,,
2021/9/16,18:00:00,9,��쐼,2.1,13.6,82.5,0,0.01,8,��,5.6,41,,
2021/9/16,19:00:00,8,��,2.3,13.7,80.7,0,0,8,��,5,58,,
2021/9/16,20:00:00,8,��,2.1,13.5,82.4,0,0,8,��,5,51,,
2021/9/16,21:00:00,7,��쓌,1.6,13.4,81.8,0,0,8,��,4.4,16,,
2021/9/16,22:00:00,8,��,1.4,13,81.1,0,0,8,��,3.7,29,,
2021/9/16,23:00:00,13,���k��,1.2,8.4,97.3,0,0,9,��쐼,3,7,,
2021/9/16,0:00:00,12,��,1.3,8.1,99.1,0,0,13,���k��,2.5,26,,
2021/9/17,1:00:00,12,��,1.8,8.3,100,0,0,12,��,2.3,59,,
2021/9/17,2:00:00,12,��,1.4,6.9,99.7,0,0,13,���k��,2.3,59,,
2021/9/17,3:00:00,13,���k��,2.5,8.8,100,0,0,13,���k��,3.1,59,,
2021/9/17,4:00:00,13,���k��,1.6,9.5,99.5,0,0,12,��,3.3,44,,
2021/9/17,5:00:00,12,��,1,9.3,98.8,0,0,12,��,2.4,34,,
2021/9/17,6:00:00,15,�k�k��,0.8,10.2,98.6,0,0.02,14,�k��,3.4,41,,
2021/9/17,7:00:00,14,�k��,0.5,11.9,96.3,0,0.1,14,�k��,2.8,28,,
2021/9/17,8:00:00,12,��,0.6,13,88.5,0,0.2,14,�k��,1.9,20,,
2021/9/17,9:00:00,8,��,1.2,16.4,80.9,0,0.38,11,���쐼,2.9,0,,
2021/9/17,10:00:00,7,��쓌,2.7,16.9,73.5,0,0.45,6,�쓌,5.8,57,,
2021/9/17,11:00:00,7,��쓌,2.7,17.2,73.3,0,0.61,6,�쓌,6.6,9,,
2021/9/17,12:00:00,7,��쓌,2.5,16.2,76.9,0,0.3,7,��쓌,6.5,19,,
2021/9/17,13:00:00,7,��쓌,3.6,16.6,75.4,0,0.36,8,��,7.1,59,,
2021/9/17,14:00:00,8,��,3.2,16.3,85,0,0.31,8,��,6.8,47,,